Friday Harbor, WA
on Tuesday, January 22, 2013

Tuesday
Previous Day Next Day
Daily Summary
 ActualAverageRecord
Temperature
Mean Temperature °F °F  
Max Temperature 39°F 44°F 55°F (2005)
Min Temperature 34°F 36°F 23°F (2008)
Degree Days
Heating Degree Days 28    
Moisture
Dew Point 34°F   
Average Humidity 89    
Maximum Humidity 93    
Minimum Humidity 79    
Precipitation
Precipitation 0.00 in in in ()
Wind
Wind Speed 3 mph   
Max Wind Speed 6 mph   
Max Gust Speed mph   
Visibility 10 miles   
Events     
Averages and records for this station are not official NWS values.
Key: T is trace of precipitation, MM is missing value
Source: NWS Daily Summary
Seasonal Weather Averages
Time(PST)TemperatureDew PointHumidity Pressure Visibility Wind DirectionWind SpeedGust SpeedPrecipitationEvents Conditions
12:53 AM 36.0°F 33.1°F 89% 30.16 in 8.0 miles NE 4.6 mph - N/A   Overcast
1:32 AM 35.6°F 33.8°F 93% 30.15 in 7.0 miles SE 3.5 mph - N/A   Overcast
1:53 AM 35.1°F 33.1°F 92% 30.15 in 9.0 miles ESE 4.6 mph - N/A   Overcast
2:53 AM 35.1°F 33.1°F 92% 30.14 in 10.0 miles Calm Calm - N/A   Overcast
3:41 AM 35.6°F 32.0°F 87% 30.14 in 10.0 miles East 5.8 mph - N/A   Overcast
3:53 AM 35.1°F 33.1°F 92% 30.15 in 10.0 miles ESE 4.6 mph - N/A   Overcast
4:53 AM 34.0°F 32.0°F 92% 30.13 in 10.0 miles SE 3.5 mph - N/A   Overcast
5:53 AM 35.1°F 32.0°F 89% 30.12 in 10.0 miles Calm Calm - N/A   Overcast
6:53 AM 34.0°F 30.9°F 89% 30.11 in 10.0 miles NNE 3.5 mph - N/A   Overcast
7:53 AM 34.0°F 30.9°F 89% 30.10 in 10.0 miles Calm Calm - N/A   Overcast
8:53 AM 34.0°F 32.0°F 92% 30.10 in 10.0 miles Calm Calm - N/A   Overcast
9:53 AM 36.0°F 32.0°F 86% 30.10 in 10.0 miles North 3.5 mph - N/A   Overcast
10:33 AM 37.4°F 33.8°F 87% 30.09 in 9.0 miles Calm Calm - N/A   Scattered Clouds
10:45 AM 37.4°F 33.8°F 87% 30.09 in 9.0 miles Calm Calm - N/A   Mostly Cloudy
10:53 AM 37.0°F 34.0°F 89% 30.09 in 10.0 miles North 3.5 mph - N/A   Mostly Cloudy
11:24 AM 37.4°F 33.8°F 87% 30.08 in 10.0 miles North 5.8 mph - N/A   Scattered Clouds
11:53 AM 37.9°F 34.0°F 86% 30.08 in 9.0 miles ENE 3.5 mph - N/A   Clear
12:53 PM 39.9°F 34.0°F 79% 30.05 in 10.0 miles NNE 3.5 mph - N/A   Clear
1:53 PM 39.9°F 35.1°F 83% 30.02 in 10.0 miles Calm Calm - N/A   Clear
2:53 PM 39.9°F 35.1°F 83% 30.01 in 10.0 miles Calm Calm - N/A   Clear
3:53 PM 39.9°F 35.1°F 83% 29.99 in 10.0 miles NNE 3.5 mph - N/A   Clear
4:53 PM 37.9°F 34.0°F 86% 29.98 in 10.0 miles Calm Calm - N/A   Clear
5:53 PM 36.0°F 33.1°F 89% 29.98 in 10.0 miles West 4.6 mph - N/A   Clear
6:53 PM 37.0°F 34.0°F 89% 29.96 in 10.0 miles North 3.5 mph - N/A   Clear
7:53 PM 37.0°F 34.0°F 89% 29.95 in 10.0 miles West 3.5 mph - N/A   Clear
8:13 PM 37.4°F 35.6°F 93% 29.95 in 10.0 miles Calm Calm - N/A   Partly Cloudy
8:53 PM 37.0°F 34.0°F 89% 29.95 in 10.0 miles Calm Calm - N/A   Clear
9:53 PM 37.0°F 35.1°F 93% 29.94 in 10.0 miles Calm Calm - N/A   Overcast
10:53 PM 37.0°F 35.1°F 93% 29.94 in 10.0 miles Calm Calm - N/A   Overcast
11:53 PM 37.9°F 35.1°F 89% 29.94 in 10.0 miles Calm Calm - N/A   Overcast
Moon Phase
Jan. 22 Jan. 26 Feb. 03 Feb. 10 Feb. 17
Sunrise:07:52 AM (PST) Moon Rise:01:18 PM (PST)1/22
Sunset:04:55 PM (PST) Moon Set:04:22 AM (PST)1/22

Copyright © 2014 The Weather Underground, Inc.